Aviation Digital Data Service (ADDS)

Output produced by METARs form (1739 UTC 27 May 2017)
found at http://www.aviationweather.gov/adds/metars/
 
OMAA 271700Z 35005KT CAVOK 31/22 Q1002 NOSIG
TAF OMAA 271700Z 2718/2900 35005KT 8000 NSC 
     BECMG 2720/2722 18005KT 
     TEMPO 2722/2804 VRB02KT 4000 HZ 
     PROB30 
     TEMPO 2800/2803 0500 FG VV001 
     BECMG 2807/2809 32012KT 
     BECMG 2818/2820 21005KT 
     PROB40 2822/2900 3000 BR
       
OMAA 271700Z 35005KT CAVOK 31/22 Q1002 NOSIG
TAF OMAA 271700Z 2718/2900 35005KT 8000 NSC 
     BECMG 2720/2722 18005KT 
     TEMPO 2722/2804 VRB02KT 4000 HZ 
     PROB30 
     TEMPO 2800/2803 0500 FG VV001 
     BECMG 2807/2809 32012KT 
     BECMG 2818/2820 21005KT 
     PROB40 2822/2900 3000 BR
       
OMAD 271700Z 02004KT CAVOK 31/25 Q1002 NOSIG
TAF OMAD 271700Z 2718/2900 35005KT 8000 NSC 
     BECMG 2719/2721 19004KT 
     TEMPO 2722/2804 VRB02KT 4000 HZ 
     PROB30 
     TEMPO 2800/2803 1000 BCFG 
     BECMG 2807/2809 32012KT 
     BECMG 2818/2820 20004KT 
     PROB40 2822/2900 3000 BR
       
OMAL 271700Z 35005KT CAVOK 35/18 Q1005 NOSIG
TAF OMAL 271700Z 2718/2900 34010KT 8000 NSC 
     BECMG 2719/2721 05006KT 
     BECMG 2723/2801 15008KT 
     BECMG 2809/2811 29012KT 
     BECMG 2818/2820 VRB02KT
       
OMDB 271700Z 09005KT CAVOK 33/18 Q1003 NOSIG
TAF OMDB 271652Z 2718/2900 15005KT 8000 NSC 
     BECMG 2806/2808 29012KT 
     BECMG 2815/2817 18005KT
       
OMDW 271700Z 07004KT CAVOK 29/22 Q1004 NOSIG
TAF OMDW 271652Z 2718/2900 12005KT 8000 NSC 
     PROB30 2722/2804 1500 BR 
     BECMG 2803/2805 20010KT 
     BECMG 2808/2810 30014KT 
     BECMG 2815/2817 18005KT
       
OMFJ 271700Z 17002KT 6000 NSC 32/27 Q1002 RMK A2960
TAF OMFJ 271700Z 2718/2824 VRB03KT 7000 NSC 
     PROB30 2721/2803 29005KT 4000 HZ 
     BECMG 2804/2806 08008KT 
     BECMG 2814/2816 VRB03KT
       
OMRK 271700Z VRB02KT CAVOK 30/21 Q1003 A2964
TAF OMRK 271652Z 2718/2900 20005KT 8000 NSC 
     BECMG 2806/2808 30012KT 
     BECMG 2815/2817 18005KT
       
OMSJ 271700Z 08005KT CAVOK 29/24 Q1003
TAF OMSJ 271652Z 2718/2900 15005KT 8000 NSC 
     PROB30 2800/2804 4000 HZ 
     BECMG 2806/2808 29012KT 
     BECMG 2815/2817 18005KT
       
OMAL 271700Z 35005KT CAVOK 35/18 Q1005 NOSIG
TAF OMAL 271700Z 2718/2900 34010KT 8000 NSC 
     BECMG 2719/2721 05006KT 
     BECMG 2723/2801 15008KT 
     BECMG 2809/2811 29012KT 
     BECMG 2818/2820 VRB02KT
       
OMAD 271700Z 02004KT CAVOK 31/25 Q1002 NOSIG
TAF OMAD 271700Z 2718/2900 35005KT 8000 NSC 
     BECMG 2719/2721 19004KT 
     TEMPO 2722/2804 VRB02KT 4000 HZ 
     PROB30 
     TEMPO 2800/2803 1000 BCFG 
     BECMG 2807/2809 32012KT 
     BECMG 2818/2820 20004KT 
     PROB40 2822/2900 3000 BR
       
OMDB 271700Z 09005KT CAVOK 33/18 Q1003 NOSIG
TAF OMDB 271652Z 2718/2900 15005KT 8000 NSC 
     BECMG 2806/2808 29012KT 
     BECMG 2815/2817 18005KT
       
OMFJ 271700Z 17002KT 6000 NSC 32/27 Q1002 RMK A2960
TAF OMFJ 271700Z 2718/2824 VRB03KT 7000 NSC 
     PROB30 2721/2803 29005KT 4000 HZ 
     BECMG 2804/2806 08008KT 
     BECMG 2814/2816 VRB03KT
       
OMRK 271700Z VRB02KT CAVOK 30/21 Q1003 A2964
TAF OMRK 271652Z 2718/2900 20005KT 8000 NSC 
     BECMG 2806/2808 30012KT 
     BECMG 2815/2817 18005KT
       
OMAA 271700Z 35005KT CAVOK 31/22 Q1002 NOSIG
TAF OMAA 271700Z 2718/2900 35005KT 8000 NSC 
     BECMG 2720/2722 18005KT 
     TEMPO 2722/2804 VRB02KT 4000 HZ 
     PROB30 
     TEMPO 2800/2803 0500 FG VV001 
     BECMG 2807/2809 32012KT 
     BECMG 2818/2820 21005KT 
     PROB40 2822/2900 3000 BR
       
OMAD 271700Z 02004KT CAVOK 31/25 Q1002 NOSIG
TAF OMAD 271700Z 2718/2900 35005KT 8000 NSC 
     BECMG 2719/2721 19004KT 
     TEMPO 2722/2804 VRB02KT 4000 HZ 
     PROB30 
     TEMPO 2800/2803 1000 BCFG 
     BECMG 2807/2809 32012KT 
     BECMG 2818/2820 20004KT 
     PROB40 2822/2900 3000 BR
       
OMAL 271700Z 35005KT CAVOK 35/18 Q1005 NOSIG
TAF OMAL 271700Z 2718/2900 34010KT 8000 NSC 
     BECMG 2719/2721 05006KT 
     BECMG 2723/2801 15008KT 
     BECMG 2809/2811 29012KT 
     BECMG 2818/2820 VRB02KT
       
OMDB 271700Z 09005KT CAVOK 33/18 Q1003 NOSIG
TAF OMDB 271652Z 2718/2900 15005KT 8000 NSC 
     BECMG 2806/2808 29012KT 
     BECMG 2815/2817 18005KT
       
OMDW 271700Z 07004KT CAVOK 29/22 Q1004 NOSIG
TAF OMDW 271652Z 2718/2900 12005KT 8000 NSC 
     PROB30 2722/2804 1500 BR 
     BECMG 2803/2805 20010KT 
     BECMG 2808/2810 30014KT 
     BECMG 2815/2817 18005KT
       
OMFJ 271700Z 17002KT 6000 NSC 32/27 Q1002 RMK A2960
TAF OMFJ 271700Z 2718/2824 VRB03KT 7000 NSC 
     PROB30 2721/2803 29005KT 4000 HZ 
     BECMG 2804/2806 08008KT 
     BECMG 2814/2816 VRB03KT
       
OMRK 271700Z VRB02KT CAVOK 30/21 Q1003 A2964
TAF OMRK 271652Z 2718/2900 20005KT 8000 NSC 
     BECMG 2806/2808 30012KT 
     BECMG 2815/2817 18005KT
       
OMSJ 271700Z 08005KT CAVOK 29/24 Q1003
TAF OMSJ 271652Z 2718/2900 15005KT 8000 NSC 
     PROB30 2800/2804 4000 HZ 
     BECMG 2806/2808 29012KT 
     BECMG 2815/2817 18005KT
       
OMSJ 271700Z 08005KT CAVOK 29/24 Q1003
TAF OMSJ 271652Z 2718/2900 15005KT 8000 NSC 
     PROB30 2800/2804 4000 HZ 
     BECMG 2806/2808 29012KT 
     BECMG 2815/2817 18005KT
       
OMAA 271700Z 35005KT CAVOK 31/22 Q1002 NOSIG
TAF OMAA 271700Z 2718/2900 35005KT 8000 NSC 
     BECMG 2720/2722 18005KT 
     TEMPO 2722/2804 VRB02KT 4000 HZ 
     PROB30 
     TEMPO 2800/2803 0500 FG VV001 
     BECMG 2807/2809 32012KT 
     BECMG 2818/2820 21005KT 
     PROB40 2822/2900 3000 BR
       
OMAD 271700Z 02004KT CAVOK 31/25 Q1002 NOSIG
TAF OMAD 271700Z 2718/2900 35005KT 8000 NSC 
     BECMG 2719/2721 19004KT 
     TEMPO 2722/2804 VRB02KT 4000 HZ 
     PROB30 
     TEMPO 2800/2803 1000 BCFG 
     BECMG 2807/2809 32012KT 
     BECMG 2818/2820 20004KT 
     PROB40 2822/2900 3000 BR
       
OMAL 271700Z 35005KT CAVOK 35/18 Q1005 NOSIG
TAF OMAL 271700Z 2718/2900 34010KT 8000 NSC 
     BECMG 2719/2721 05006KT 
     BECMG 2723/2801 15008KT 
     BECMG 2809/2811 29012KT 
     BECMG 2818/2820 VRB02KT
       
OMDB 271700Z 09005KT CAVOK 33/18 Q1003 NOSIG
TAF OMDB 271652Z 2718/2900 15005KT 8000 NSC 
     BECMG 2806/2808 29012KT 
     BECMG 2815/2817 18005KT
       
OMDW 271700Z 07004KT CAVOK 29/22 Q1004 NOSIG
TAF OMDW 271652Z 2718/2900 12005KT 8000 NSC 
     PROB30 2722/2804 1500 BR 
     BECMG 2803/2805 20010KT 
     BECMG 2808/2810 30014KT 
     BECMG 2815/2817 18005KT
       
OMFJ 271700Z 17002KT 6000 NSC 32/27 Q1002 RMK A2960
TAF OMFJ 271700Z 2718/2824 VRB03KT 7000 NSC 
     PROB30 2721/2803 29005KT 4000 HZ 
     BECMG 2804/2806 08008KT 
     BECMG 2814/2816 VRB03KT
       
OMRK 271700Z VRB02KT CAVOK 30/21 Q1003 A2964
TAF OMRK 271652Z 2718/2900 20005KT 8000 NSC 
     BECMG 2806/2808 30012KT 
     BECMG 2815/2817 18005KT
       
OMSJ 271700Z 08005KT CAVOK 29/24 Q1003
TAF OMSJ 271652Z 2718/2900 15005KT 8000 NSC 
     PROB30 2800/2804 4000 HZ 
     BECMG 2806/2808 29012KT 
     BECMG 2815/2817 18005KT